Year,Month,Day,Hour,Minute,Value (Times are PST for temperature in C)
2011,05,19,00,00,8.40
2011,05,19,00,01,8.40
2011,05,19,00,02,8.30
2011,05,19,00,03,8.30
2011,05,19,00,04,8.30
2011,05,19,00,05,8.30
2011,05,19,00,06,8.20
2011,05,19,00,07,8.20
2011,05,19,00,08,8.20
2011,05,19,00,09,8.20
2011,05,19,00,10,8.20
2011,05,19,00,11,8.20
2011,05,19,00,12,8.20
2011,05,19,00,13,8.20
2011,05,19,00,14,8.20
2011,05,19,00,15,8.10
2011,05,19,00,16,8.10
2011,05,19,00,17,8.10
2011,05,19,00,18,8.10
2011,05,19,00,19,8.10
2011,05,19,00,20,8.00
2011,05,19,00,21,8.00
2011,05,19,00,22,8.00
2011,05,19,00,23,7.90
2011,05,19,00,24,7.90
2011,05,19,00,25,7.80
2011,05,19,00,26,7.80
2011,05,19,00,27,7.80
2011,05,19,00,28,7.80
2011,05,19,00,29,7.80
2011,05,19,00,30,7.70
2011,05,19,00,31,7.70
2011,05,19,00,32,7.70
2011,05,19,00,33,7.70
2011,05,19,00,34,7.80
2011,05,19,00,35,7.80
2011,05,19,00,36,7.80
2011,05,19,00,37,7.80
2011,05,19,00,38,7.80
2011,05,19,00,39,7.80
2011,05,19,00,40,7.80
2011,05,19,00,41,7.80
2011,05,19,00,42,7.70
2011,05,19,00,43,7.70
2011,05,19,00,44,7.70
2011,05,19,00,45,7.70
2011,05,19,00,46,7.70
2011,05,19,00,47,7.70
2011,05,19,00,48,7.70
2011,05,19,00,49,7.70
2011,05,19,00,50,7.70
2011,05,19,00,51,7.70
2011,05,19,00,52,7.70
2011,05,19,00,53,7.70
2011,05,19,00,54,7.70
2011,05,19,00,55,7.70
2011,05,19,00,56,7.70
2011,05,19,00,57,7.70
2011,05,19,00,58,7.60
2011,05,19,00,59,7.60
2011,05,19,01,00,7.60
2011,05,19,01,01,7.50
2011,05,19,01,02,7.50
2011,05,19,01,03,7.50
2011,05,19,01,04,7.40
2011,05,19,01,05,7.40
2011,05,19,01,06,7.30
2011,05,19,01,07,7.30
2011,05,19,01,08,7.30
2011,05,19,01,09,7.30
2011,05,19,01,10,7.30
2011,05,19,01,11,7.20
2011,05,19,01,12,7.20
2011,05,19,01,13,7.20
2011,05,19,01,14,7.20
2011,05,19,01,15,7.20
2011,05,19,01,16,7.10
2011,05,19,01,17,7.10
2011,05,19,01,18,7.10
2011,05,19,01,19,7.10
2011,05,19,01,20,7.10
2011,05,19,01,21,7.10
2011,05,19,01,22,7.10
2011,05,19,01,23,7.10
2011,05,19,01,24,7.10
2011,05,19,01,25,7.10
2011,05,19,01,26,7.10
2011,05,19,01,27,7.20
2011,05,19,01,28,7.20
2011,05,19,01,29,7.20
2011,05,19,01,30,7.20
2011,05,19,01,31,7.20
2011,05,19,01,32,7.20
2011,05,19,01,33,7.20
2011,05,19,01,34,7.20
2011,05,19,01,35,7.20
2011,05,19,01,36,7.20
2011,05,19,01,37,7.20
2011,05,19,01,38,7.20
2011,05,19,01,39,7.10
2011,05,19,01,40,7.10
2011,05,19,01,41,7.10
2011,05,19,01,42,7.10
2011,05,19,01,43,7.10
2011,05,19,01,44,7.00
2011,05,19,01,45,7.00
2011,05,19,01,46,7.00
2011,05,19,01,47,6.90
2011,05,19,01,48,6.90
2011,05,19,01,49,6.90
2011,05,19,01,50,6.80
2011,05,19,01,51,6.80
2011,05,19,01,52,6.80
2011,05,19,01,53,6.80
2011,05,19,01,54,6.70
2011,05,19,01,55,6.70
2011,05,19,01,56,6.70
2011,05,19,01,57,6.70
2011,05,19,01,58,6.70
2011,05,19,01,59,6.70
2011,05,19,02,00,6.70
2011,05,19,02,01,6.70
2011,05,19,02,02,6.70
2011,05,19,02,03,6.70
2011,05,19,02,04,6.70
2011,05,19,02,05,6.70
2011,05,19,02,06,6.70
2011,05,19,02,07,6.70
2011,05,19,02,08,6.70
2011,05,19,02,09,6.70
2011,05,19,02,10,6.70
2011,05,19,02,11,6.70
2011,05,19,02,12,6.70
2011,05,19,02,13,6.70
2011,05,19,02,14,6.70
2011,05,19,02,15,6.60
2011,05,19,02,16,6.60
2011,05,19,02,17,6.60
2011,05,19,02,18,6.60
2011,05,19,02,19,6.50
2011,05,19,02,20,6.50
2011,05,19,02,21,6.40
2011,05,19,02,22,6.40
2011,05,19,02,23,6.40
2011,05,19,02,24,6.40
2011,05,19,02,25,6.30
2011,05,19,02,26,6.30
2011,05,19,02,27,6.30
2011,05,19,02,28,6.30
2011,05,19,02,29,6.30
2011,05,19,02,30,6.30
2011,05,19,02,31,6.30
2011,05,19,02,32,6.30
2011,05,19,02,33,6.20
2011,05,19,02,34,6.20
2011,05,19,02,35,6.20
2011,05,19,02,36,6.20
2011,05,19,02,37,6.20
2011,05,19,02,38,6.20
2011,05,19,02,39,6.20
2011,05,19,02,40,6.20
2011,05,19,02,41,6.20
2011,05,19,02,42,6.20
2011,05,19,02,43,6.20
2011,05,19,02,44,6.20
2011,05,19,02,45,6.20
2011,05,19,02,46,6.20
2011,05,19,02,47,6.10
2011,05,19,02,48,6.10
2011,05,19,02,49,6.10
2011,05,19,02,50,6.10
2011,05,19,02,51,6.10
2011,05,19,02,52,6.10
2011,05,19,02,53,6.10
2011,05,19,02,54,6.10
2011,05,19,02,55,6.10
2011,05,19,02,56,6.10
2011,05,19,02,57,6.00
2011,05,19,02,58,6.00
2011,05,19,02,59,5.90
2011,05,19,03,00,5.90
2011,05,19,03,01,5.90
2011,05,19,03,02,5.90
2011,05,19,03,03,5.90
2011,05,19,03,04,5.90
2011,05,19,03,05,5.90
2011,05,19,03,06,5.90
2011,05,19,03,07,5.80
2011,05,19,03,08,5.80
2011,05,19,03,09,5.80
2011,05,19,03,10,5.80
2011,05,19,03,11,5.80
2011,05,19,03,12,5.80
2011,05,19,03,13,5.80
2011,05,19,03,14,5.80
2011,05,19,03,15,5.80
2011,05,19,03,16,5.70
2011,05,19,03,17,5.70
2011,05,19,03,18,5.70
2011,05,19,03,19,5.70
2011,05,19,03,20,5.60
2011,05,19,03,21,5.60
2011,05,19,03,22,5.60
2011,05,19,03,23,5.60
2011,05,19,03,24,5.60
2011,05,19,03,25,5.70
2011,05,19,03,26,5.70
2011,05,19,03,27,5.70
2011,05,19,03,28,5.70
2011,05,19,03,29,5.70
2011,05,19,03,30,5.70
2011,05,19,03,31,5.70
2011,05,19,03,32,5.70
2011,05,19,03,33,5.70
2011,05,19,03,34,5.70
2011,05,19,03,35,5.70
2011,05,19,03,36,5.70
2011,05,19,03,37,5.70
2011,05,19,03,38,5.70
2011,05,19,03,39,5.60
2011,05,19,03,40,5.60
2011,05,19,03,41,5.60
2011,05,19,03,42,5.60
2011,05,19,03,43,5.70
2011,05,19,03,44,5.70
2011,05,19,03,45,5.70
2011,05,19,03,46,5.70
2011,05,19,03,47,5.70
2011,05,19,03,48,5.70
2011,05,19,03,49,5.70
2011,05,19,03,50,5.70
2011,05,19,03,51,5.80
2011,05,19,03,52,5.80
2011,05,19,03,53,5.80
2011,05,19,03,54,5.80
2011,05,19,03,55,5.90
2011,05,19,03,56,5.90
2011,05,19,03,57,5.90
2011,05,19,03,58,5.90
2011,05,19,03,59,5.90
2011,05,19,04,00,5.90
2011,05,19,04,01,5.90
2011,05,19,04,02,5.90
2011,05,19,04,03,5.90
2011,05,19,04,06,5.80
2011,05,19,04,09,5.70
2011,05,19,04,10,5.70
2011,05,19,04,11,5.80
2011,05,19,04,12,5.80
2011,05,19,04,13,5.80
2011,05,19,04,14,5.80
2011,05,19,04,15,5.80
2011,05,19,04,16,5.90
2011,05,19,04,17,5.90
2011,05,19,04,18,5.90
2011,05,19,04,19,5.90
2011,05,19,04,20,5.90
2011,05,19,04,21,6.00
2011,05,19,04,22,6.00
2011,05,19,04,23,6.00
2011,05,19,04,24,5.90
2011,05,19,04,25,5.90
2011,05,19,04,26,5.90
2011,05,19,04,27,5.80
2011,05,19,04,28,5.80
2011,05,19,04,29,5.80
2011,05,19,04,30,5.70
2011,05,19,04,31,5.70
2011,05,19,04,32,5.70
2011,05,19,04,33,5.60
2011,05,19,04,34,5.60
2011,05,19,04,35,5.60
2011,05,19,04,36,5.60
2011,05,19,04,37,5.60
2011,05,19,04,38,5.50
2011,05,19,04,39,5.50
2011,05,19,04,40,5.40
2011,05,19,04,41,5.40
2011,05,19,04,42,5.40
2011,05,19,04,43,5.40
2011,05,19,04,44,5.40
2011,05,19,04,45,5.40
2011,05,19,04,46,5.40
2011,05,19,04,47,5.40
2011,05,19,04,48,5.40
2011,05,19,04,49,5.40
2011,05,19,04,50,5.40
2011,05,19,04,51,5.40
2011,05,19,04,52,5.40
2011,05,19,04,53,5.50
2011,05,19,04,54,5.50
2011,05,19,04,55,5.50
2011,05,19,04,56,5.50
2011,05,19,04,57,5.50
2011,05,19,04,58,5.50
2011,05,19,04,59,5.50
2011,05,19,05,00,5.50
2011,05,19,05,01,5.40
2011,05,19,05,02,5.40
2011,05,19,05,03,5.40
2011,05,19,05,04,5.40
2011,05,19,05,05,5.30
2011,05,19,05,06,5.30
2011,05,19,05,07,5.30
2011,05,19,05,08,5.30
2011,05,19,05,09,5.30
2011,05,19,05,10,5.30
2011,05,19,05,11,5.30
2011,05,19,05,12,5.20
2011,05,19,05,13,5.20
2011,05,19,05,14,5.20
2011,05,19,05,15,5.20
2011,05,19,05,16,5.20
2011,05,19,05,17,5.20
2011,05,19,05,18,5.20
2011,05,19,05,19,5.20
2011,05,19,05,20,5.10
2011,05,19,05,21,5.10
2011,05,19,05,22,5.10
2011,05,19,05,23,5.10
2011,05,19,05,24,5.00
2011,05,19,05,25,5.00
2011,05,19,05,26,4.90
2011,05,19,05,27,4.90
2011,05,19,05,28,4.90
2011,05,19,05,29,4.80
2011,05,19,05,30,4.80
2011,05,19,05,31,4.80
2011,05,19,05,32,4.80
2011,05,19,05,33,4.80
2011,05,19,05,34,4.80
2011,05,19,05,35,4.80
2011,05,19,05,36,4.80
2011,05,19,05,37,4.70
2011,05,19,05,38,4.80
2011,05,19,05,39,4.80
2011,05,19,05,40,4.80
2011,05,19,05,41,4.80
2011,05,19,05,42,4.80
2011,05,19,05,43,4.80
2011,05,19,05,44,4.80
2011,05,19,05,45,4.80
2011,05,19,05,46,4.80
2011,05,19,05,47,4.80
2011,05,19,05,48,4.80
2011,05,19,05,49,4.80
2011,05,19,05,50,4.80
2011,05,19,05,51,4.80
2011,05,19,05,52,4.80
2011,05,19,05,53,4.80
2011,05,19,05,54,4.80
2011,05,19,05,55,4.80
2011,05,19,05,56,4.80
2011,05,19,05,57,4.80
2011,05,19,05,58,4.80
2011,05,19,05,59,4.80
2011,05,19,06,00,4.80
2011,05,19,06,01,4.80
2011,05,19,06,02,4.80
2011,05,19,06,03,4.80
2011,05,19,06,04,4.90
2011,05,19,06,05,4.90
2011,05,19,06,06,4.90
2011,05,19,06,07,4.90
2011,05,19,06,08,4.90
2011,05,19,06,09,5.00
2011,05,19,06,10,5.00
2011,05,19,06,11,5.10
2011,05,19,06,12,5.10
2011,05,19,06,13,5.10
2011,05,19,06,14,5.10
2011,05,19,06,15,5.10
2011,05,19,06,16,5.20
2011,05,19,06,17,5.20
2011,05,19,06,18,5.20
2011,05,19,06,19,5.20
2011,05,19,06,20,5.20
2011,05,19,06,21,5.20
2011,05,19,06,22,5.20
2011,05,19,06,23,5.20
2011,05,19,06,24,5.30
2011,05,19,06,25,5.30
2011,05,19,06,26,5.30
2011,05,19,06,27,5.30
2011,05,19,06,28,5.40
2011,05,19,06,29,5.50
2011,05,19,06,30,5.50
2011,05,19,06,31,5.60
2011,05,19,06,32,5.60
2011,05,19,06,33,5.70
2011,05,19,06,34,5.70
2011,05,19,06,35,5.70
2011,05,19,06,36,5.80
2011,05,19,06,37,5.80
2011,05,19,06,38,5.90
2011,05,19,06,39,5.90
2011,05,19,06,40,6.00
2011,05,19,06,41,6.00
2011,05,19,06,42,6.10
2011,05,19,06,43,6.10
2011,05,19,06,44,6.20
2011,05,19,06,45,6.20
2011,05,19,06,46,6.30
2011,05,19,06,47,6.30
2011,05,19,06,48,6.40
2011,05,19,06,49,6.40
2011,05,19,06,50,6.50
2011,05,19,06,51,6.50
2011,05,19,06,52,6.60
2011,05,19,06,53,6.60
2011,05,19,06,54,6.60
2011,05,19,06,55,6.70
2011,05,19,06,56,6.70
2011,05,19,06,57,6.80
2011,05,19,06,58,6.90
2011,05,19,06,59,6.90
2011,05,19,07,00,7.00
2011,05,19,07,01,7.00
2011,05,19,07,02,7.10
2011,05,19,07,03,7.10
2011,05,19,07,04,7.20
2011,05,19,07,05,7.30
2011,05,19,07,06,7.30
2011,05,19,07,07,7.40
2011,05,19,07,08,7.50
2011,05,19,07,09,7.60
2011,05,19,07,10,7.60
2011,05,19,07,11,7.70
2011,05,19,07,12,7.80
2011,05,19,07,13,7.90
2011,05,19,07,14,8.00
2011,05,19,07,15,8.00
2011,05,19,07,16,8.10
2011,05,19,07,17,8.20
2011,05,19,07,18,8.30
2011,05,19,07,19,8.30
2011,05,19,07,20,8.40
2011,05,19,07,21,8.50
2011,05,19,07,22,8.50
2011,05,19,07,23,8.60
2011,05,19,07,24,8.70
2011,05,19,07,25,8.70
2011,05,19,07,26,8.80
2011,05,19,07,27,8.90
2011,05,19,07,28,9.00
2011,05,19,07,29,9.10
2011,05,19,07,30,9.20
2011,05,19,07,31,9.30
2011,05,19,07,32,9.40
2011,05,19,07,33,9.50
2011,05,19,07,34,9.50
2011,05,19,07,35,9.60
2011,05,19,07,36,9.60
2011,05,19,07,37,9.70
2011,05,19,07,38,9.80
2011,05,19,07,39,9.80
2011,05,19,07,40,9.80
2011,05,19,07,41,9.90
2011,05,19,07,42,9.90
2011,05,19,07,43,10.00
2011,05,19,07,44,10.10
2011,05,19,07,45,10.10
2011,05,19,07,46,10.20
2011,05,19,07,47,10.20
2011,05,19,07,48,10.20
2011,05,19,07,49,10.30
2011,05,19,07,50,10.30
2011,05,19,07,51,10.40
2011,05,19,07,52,10.40
2011,05,19,07,53,10.50
2011,05,19,07,54,10.60
2011,05,19,07,55,10.60
2011,05,19,07,56,10.70
2011,05,19,07,57,10.70
2011,05,19,07,58,10.80
2011,05,19,07,59,10.80
2011,05,19,08,00,10.90
2011,05,19,08,01,10.90
2011,05,19,08,02,11.00
2011,05,19,08,03,11.00
2011,05,19,08,04,11.10
2011,05,19,08,05,11.10
2011,05,19,08,06,11.10
2011,05,19,08,07,11.20
2011,05,19,08,08,11.20
2011,05,19,08,09,11.20
2011,05,19,08,10,11.20
2011,05,19,08,11,11.30
2011,05,19,08,12,11.30
2011,05,19,08,13,11.40
2011,05,19,08,14,11.40
2011,05,19,08,15,11.50
2011,05,19,08,16,11.40
2011,05,19,08,17,11.40
2011,05,19,08,18,11.40
2011,05,19,08,19,11.40
2011,05,19,08,20,11.40
2011,05,19,08,21,11.50
2011,05,19,08,22,11.50
2011,05,19,08,23,11.50
2011,05,19,08,24,11.50
2011,05,19,08,25,11.50
2011,05,19,08,26,11.50
2011,05,19,08,27,11.50
2011,05,19,08,28,11.50
2011,05,19,08,29,11.50
2011,05,19,08,30,11.40
2011,05,19,08,31,11.40
2011,05,19,08,32,11.40
2011,05,19,08,33,11.40
2011,05,19,08,34,11.40
2011,05,19,08,35,11.40
2011,05,19,08,36,11.50
2011,05,19,08,37,11.60
2011,05,19,08,38,11.60
2011,05,19,08,39,11.70
2011,05,19,08,40,11.80
2011,05,19,08,41,11.80
2011,05,19,08,42,11.80
2011,05,19,08,43,11.80
2011,05,19,08,44,11.80
2011,05,19,08,45,11.80
2011,05,19,08,46,11.80
2011,05,19,08,47,11.80
2011,05,19,08,48,11.80
2011,05,19,08,49,11.80
2011,05,19,08,50,11.80
2011,05,19,08,51,11.80
2011,05,19,08,52,11.80
2011,05,19,08,53,11.90
2011,05,19,08,54,11.90
2011,05,19,08,55,11.90
2011,05,19,08,56,11.90
2011,05,19,08,57,12.00
2011,05,19,08,58,12.10
2011,05,19,08,59,12.10
2011,05,19,09,00,12.30
2011,05,19,09,01,12.40
2011,05,19,09,02,12.50
2011,05,19,09,03,12.60
2011,05,19,09,04,12.70
2011,05,19,09,05,12.80
2011,05,19,09,06,12.90
2011,05,19,09,07,13.00
2011,05,19,09,08,13.10
2011,05,19,09,09,13.20
2011,05,19,09,10,13.20
2011,05,19,09,11,13.20
2011,05,19,09,12,13.20
2011,05,19,09,13,13.20
2011,05,19,09,14,13.20
2011,05,19,09,15,13.20
2011,05,19,09,16,13.20
2011,05,19,09,17,13.30
2011,05,19,09,18,13.30
2011,05,19,09,19,13.30
2011,05,19,09,20,13.30
2011,05,19,09,21,13.30
2011,05,19,09,22,13.30
2011,05,19,09,23,13.30
2011,05,19,09,24,13.30
2011,05,19,09,25,13.30
2011,05,19,09,26,13.30
2011,05,19,09,27,13.40
2011,05,19,09,28,13.40
2011,05,19,09,29,13.40
2011,05,19,09,30,13.50
2011,05,19,09,31,13.60
2011,05,19,09,32,13.70
2011,05,19,09,33,13.70
2011,05,19,09,34,13.80
2011,05,19,09,35,13.90
2011,05,19,09,36,13.90
2011,05,19,09,37,14.00
2011,05,19,09,38,14.00
2011,05,19,09,39,14.00
2011,05,19,09,40,14.00
2011,05,19,09,41,14.00
2011,05,19,09,42,14.10
2011,05,19,09,43,14.10
2011,05,19,09,44,14.10
2011,05,19,09,45,14.10
2011,05,19,09,46,14.10
2011,05,19,09,47,14.00
2011,05,19,09,48,13.90
2011,05,19,09,49,13.90
2011,05,19,09,50,14.00
2011,05,19,09,51,14.10
2011,05,19,09,52,14.10
2011,05,19,09,53,14.10
2011,05,19,09,54,14.10
2011,05,19,09,55,14.10
2011,05,19,09,56,14.20
2011,05,19,09,57,14.30
2011,05,19,09,58,14.40
2011,05,19,09,59,14.50
2011,05,19,10,00,14.60
2011,05,19,10,01,14.70
2011,05,19,10,02,14.80
2011,05,19,10,03,14.80
2011,05,19,10,04,14.80
2011,05,19,10,05,14.70
2011,05,19,10,06,14.70
2011,05,19,10,07,14.60
2011,05,19,10,08,14.60
2011,05,19,10,09,14.60
2011,05,19,10,10,14.70
2011,05,19,10,11,14.80
2011,05,19,10,12,14.80
2011,05,19,10,13,14.80
2011,05,19,10,14,14.80
2011,05,19,10,15,14.80
2011,05,19,10,16,14.70
2011,05,19,10,17,14.60
2011,05,19,10,18,14.50
2011,05,19,10,19,14.40
2011,05,19,10,20,14.40
2011,05,19,10,21,14.50
2011,05,19,10,22,14.50
2011,05,19,10,23,14.60
2011,05,19,10,24,14.60
2011,05,19,10,25,14.70
2011,05,19,10,26,14.70
2011,05,19,10,27,14.70
2011,05,19,10,28,14.70
2011,05,19,10,29,14.70
2011,05,19,10,30,14.70
2011,05,19,10,31,14.80
2011,05,19,10,32,14.80
2011,05,19,10,33,14.80
2011,05,19,10,34,15.00
2011,05,19,10,35,15.00
2011,05,19,10,36,15.00
2011,05,19,10,37,15.00
2011,05,19,10,38,15.00
2011,05,19,10,39,15.00
2011,05,19,10,40,14.90
2011,05,19,10,41,14.80
2011,05,19,10,42,14.80
2011,05,19,10,43,14.80
2011,05,19,10,44,14.90
2011,05,19,10,45,15.00
2011,05,19,10,46,15.00
2011,05,19,10,47,15.00
2011,05,19,10,48,15.00
2011,05,19,10,49,15.00
2011,05,19,10,50,15.10
2011,05,19,10,51,15.20
2011,05,19,10,52,15.30
2011,05,19,10,53,15.30
2011,05,19,10,54,15.30
2011,05,19,10,55,15.30
2011,05,19,10,56,15.30
2011,05,19,10,57,15.40
2011,05,19,10,58,15.40
2011,05,19,10,59,15.40
2011,05,19,11,00,15.40
2011,05,19,11,01,15.30
2011,05,19,11,02,15.30
2011,05,19,11,03,15.30
2011,05,19,11,04,15.20
2011,05,19,11,05,15.00
2011,05,19,11,06,15.00
2011,05,19,11,07,15.00
2011,05,19,11,08,15.00
2011,05,19,11,09,15.10
2011,05,19,11,10,15.20
2011,05,19,11,11,15.30
2011,05,19,11,12,15.50
2011,05,19,11,13,15.60
2011,05,19,11,14,15.60
2011,05,19,11,15,15.60
2011,05,19,11,16,15.60
2011,05,19,11,17,15.60
2011,05,19,11,18,15.50
2011,05,19,11,19,15.50
2011,05,19,11,20,15.40
2011,05,19,11,21,15.40
2011,05,19,11,22,15.40
2011,05,19,11,23,15.30
2011,05,19,11,24,15.30
2011,05,19,11,25,15.30
2011,05,19,11,26,15.30
2011,05,19,11,27,15.40
2011,05,19,11,28,15.50
2011,05,19,11,29,15.70
2011,05,19,11,30,15.70
2011,05,19,11,31,15.70
2011,05,19,11,32,15.70
2011,05,19,11,33,15.80
2011,05,19,11,34,15.80
2011,05,19,11,35,15.80
2011,05,19,11,36,15.80
2011,05,19,11,37,15.80
2011,05,19,11,38,15.80
2011,05,19,11,39,15.60
2011,05,19,11,40,15.40
2011,05,19,11,41,15.30
2011,05,19,11,42,15.30
2011,05,19,11,43,15.30
2011,05,19,11,44,15.40
2011,05,19,11,45,15.40
2011,05,19,11,46,15.30
2011,05,19,11,47,15.30
2011,05,19,11,48,15.20
2011,05,19,11,49,15.10
2011,05,19,11,50,15.20
2011,05,19,11,51,15.10
2011,05,19,11,52,15.00
2011,05,19,11,53,15.00
2011,05,19,11,54,14.90
2011,05,19,11,55,14.80
2011,05,19,11,56,14.80
2011,05,19,11,57,14.80
2011,05,19,11,58,14.70
2011,05,19,11,59,14.60
2011,05,19,12,00,14.60
2011,05,19,12,01,14.70
2011,05,19,12,02,14.70
2011,05,19,12,03,14.80
2011,05,19,12,04,14.80
2011,05,19,12,05,14.80
2011,05,19,12,06,14.80
2011,05,19,12,07,14.90
2011,05,19,12,08,15.00
2011,05,19,12,09,15.00
2011,05,19,12,10,15.00
2011,05,19,12,11,15.10
2011,05,19,12,12,15.30
2011,05,19,12,13,15.40
2011,05,19,12,14,15.50
2011,05,19,12,15,15.60
2011,05,19,12,16,15.70
2011,05,19,12,17,15.80
2011,05,19,12,18,15.80
2011,05,19,12,19,15.90
2011,05,19,12,20,15.90
2011,05,19,12,21,15.90
2011,05,19,12,22,15.90
2011,05,19,12,23,15.90
2011,05,19,12,24,15.80
2011,05,19,12,25,15.80
2011,05,19,12,26,15.70
2011,05,19,12,27,15.60
2011,05,19,12,28,15.60
2011,05,19,12,29,15.60
2011,05,19,12,30,15.60
2011,05,19,12,31,15.70
2011,05,19,12,32,15.70
2011,05,19,12,33,15.80
2011,05,19,12,34,15.90
2011,05,19,12,35,16.00
2011,05,19,12,36,16.10
2011,05,19,12,37,16.20
2011,05,19,12,38,16.20
2011,05,19,12,39,16.20
2011,05,19,12,40,16.20
2011,05,19,12,41,16.20
2011,05,19,12,42,16.20
2011,05,19,12,43,16.20
2011,05,19,12,44,16.20
2011,05,19,12,45,16.10
2011,05,19,12,46,16.00
2011,05,19,12,47,15.90
2011,05,19,12,48,15.90
2011,05,19,12,49,15.90
2011,05,19,12,50,16.00
2011,05,19,12,51,16.00
2011,05,19,12,52,16.00
2011,05,19,12,53,16.00
2011,05,19,12,54,16.00
2011,05,19,12,55,16.00
2011,05,19,12,56,16.00
2011,05,19,12,57,16.00
2011,05,19,12,58,16.00
2011,05,19,12,59,16.00
2011,05,19,13,00,16.10
2011,05,19,13,01,16.20
2011,05,19,13,02,16.20
2011,05,19,13,03,16.20
2011,05,19,13,04,16.20
2011,05,19,13,05,16.20
2011,05,19,13,06,16.30
2011,05,19,13,07,16.30
2011,05,19,13,08,16.30
2011,05,19,13,09,16.30
2011,05,19,13,10,16.30
2011,05,19,13,11,16.30
2011,05,19,13,12,16.40
2011,05,19,13,13,16.40
2011,05,19,13,14,16.40
2011,05,19,13,15,16.50
2011,05,19,13,16,16.60
2011,05,19,13,17,16.60
2011,05,19,13,18,16.60
2011,05,19,13,19,16.60
2011,05,19,13,20,16.60
2011,05,19,13,21,16.60
2011,05,19,13,22,16.50
2011,05,19,13,23,16.40
2011,05,19,13,24,16.30
2011,05,19,13,25,16.30
2011,05,19,13,26,16.40
2011,05,19,13,27,16.50
2011,05,19,13,28,16.60
2011,05,19,13,29,16.60
2011,05,19,13,30,16.70
2011,05,19,13,31,16.80
2011,05,19,13,32,16.80
2011,05,19,13,33,16.80
2011,05,19,13,34,16.80
2011,05,19,13,35,16.80
2011,05,19,13,36,16.80
2011,05,19,13,37,16.80
2011,05,19,13,38,16.80
2011,05,19,13,39,16.80
2011,05,19,13,40,16.80
2011,05,19,13,41,16.80
2011,05,19,13,42,16.70
2011,05,19,13,43,16.70
2011,05,19,13,44,16.70
2011,05,19,13,45,16.60
2011,05,19,13,46,16.60
2011,05,19,13,47,16.50
2011,05,19,13,48,16.40
2011,05,19,13,49,16.40
2011,05,19,13,50,16.40
2011,05,19,13,51,16.40
2011,05,19,13,52,16.50
2011,05,19,13,53,16.50
2011,05,19,13,54,16.60
2011,05,19,13,55,16.70
2011,05,19,13,56,16.70
2011,05,19,13,57,16.80
2011,05,19,13,58,16.70
2011,05,19,13,59,16.70
2011,05,19,14,00,16.70
2011,05,19,14,01,16.70
2011,05,19,14,02,16.80
2011,05,19,14,03,16.80
2011,05,19,14,04,16.90
2011,05,19,14,05,16.90
2011,05,19,14,06,17.00
2011,05,19,14,07,17.00
2011,05,19,14,08,17.00
2011,05,19,14,09,17.00
2011,05,19,14,10,17.00
2011,05,19,14,11,17.10
2011,05,19,14,12,17.10
2011,05,19,14,13,17.10
2011,05,19,14,14,17.20
2011,05,19,14,15,17.20
2011,05,19,14,16,17.30
2011,05,19,14,17,17.30
2011,05,19,14,18,17.30
2011,05,19,14,19,17.30
2011,05,19,14,20,17.30
2011,05,19,14,21,17.30
2011,05,19,14,22,17.30
2011,05,19,14,23,17.30
2011,05,19,14,24,17.30
2011,05,19,14,25,17.30
2011,05,19,14,26,17.30
2011,05,19,14,27,17.20
2011,05,19,14,28,17.10
2011,05,19,14,29,17.10
2011,05,19,14,30,17.00
2011,05,19,14,31,17.00
2011,05,19,14,32,16.90
2011,05,19,14,33,16.80
2011,05,19,14,34,16.70
2011,05,19,14,35,16.70
2011,05,19,14,36,16.70
2011,05,19,14,37,16.70
2011,05,19,14,38,16.70
2011,05,19,14,39,16.70
2011,05,19,14,40,16.70
2011,05,19,14,41,16.70
2011,05,19,14,42,16.60
2011,05,19,14,43,16.70
2011,05,19,14,44,16.60
2011,05,19,14,45,16.60
2011,05,19,14,46,16.60
2011,05,19,14,47,16.60
2011,05,19,14,48,16.60
2011,05,19,14,49,16.60
2011,05,19,14,50,16.70
2011,05,19,14,51,16.70
2011,05,19,14,52,16.70
2011,05,19,14,53,16.70
2011,05,19,14,54,16.70
2011,05,19,14,55,16.80
2011,05,19,14,56,16.80
2011,05,19,14,57,16.80
2011,05,19,14,58,16.70
2011,05,19,14,59,16.70
2011,05,19,15,00,16.70
2011,05,19,15,01,16.70
2011,05,19,15,02,16.70
2011,05,19,15,03,16.70
2011,05,19,15,04,16.70
2011,05,19,15,05,16.60
2011,05,19,15,06,16.60
2011,05,19,15,07,16.60
2011,05,19,15,08,16.60
2011,05,19,15,09,16.70
2011,05,19,15,10,16.80
2011,05,19,15,11,16.90
2011,05,19,15,12,16.90
2011,05,19,15,13,17.00
2011,05,19,15,14,17.00
2011,05,19,15,15,17.00
2011,05,19,15,16,16.90
2011,05,19,15,17,16.90
2011,05,19,15,18,16.90
2011,05,19,15,19,16.90
2011,05,19,15,20,16.90
2011,05,19,15,21,16.90
2011,05,19,15,22,16.90
2011,05,19,15,23,16.90
2011,05,19,15,24,16.90
2011,05,19,15,25,16.90
2011,05,19,15,26,16.80
2011,05,19,15,27,16.80
2011,05,19,15,28,16.80
2011,05,19,15,29,16.70
2011,05,19,15,30,16.80
2011,05,19,15,31,16.80
2011,05,19,15,32,16.80
2011,05,19,15,33,16.90
2011,05,19,15,34,16.90
2011,05,19,15,35,16.90
2011,05,19,15,36,16.90
2011,05,19,15,37,16.90
2011,05,19,15,38,17.00
2011,05,19,15,39,17.00
2011,05,19,15,40,17.00
2011,05,19,15,41,17.00
2011,05,19,15,42,17.10
2011,05,19,15,43,17.10
2011,05,19,15,44,17.20
2011,05,19,15,45,17.20
2011,05,19,15,46,17.20
2011,05,19,15,47,17.10
2011,05,19,15,48,17.10
2011,05,19,15,49,17.10
2011,05,19,15,50,17.20
2011,05,19,15,51,17.20
2011,05,19,15,52,17.20
2011,05,19,15,53,17.20
2011,05,19,15,54,17.20
2011,05,19,15,55,17.20
2011,05,19,15,56,17.30
2011,05,19,15,57,17.40
2011,05,19,15,58,17.40
2011,05,19,15,59,17.50
2011,05,19,16,00,17.60
2011,05,19,16,01,17.70
2011,05,19,16,02,17.70
2011,05,19,16,03,17.70
2011,05,19,16,04,17.70
2011,05,19,16,05,17.70
2011,05,19,16,06,17.60
2011,05,19,16,07,17.60
2011,05,19,16,08,17.60
2011,05,19,16,09,17.70
2011,05,19,16,10,17.70
2011,05,19,16,11,17.80
2011,05,19,16,12,17.90
2011,05,19,16,13,18.00
2011,05,19,16,14,18.10
2011,05,19,16,15,18.20
2011,05,19,16,16,18.30
2011,05,19,16,17,18.40
2011,05,19,16,18,18.40
2011,05,19,16,19,18.50
2011,05,19,16,20,18.50
2011,05,19,16,21,18.50
2011,05,19,16,22,18.60
2011,05,19,16,23,18.70
2011,05,19,16,24,18.70
2011,05,19,16,25,18.80
2011,05,19,16,26,18.80
2011,05,19,16,27,18.80
2011,05,19,16,28,18.80
2011,05,19,16,29,18.80
2011,05,19,16,30,18.70
2011,05,19,16,31,18.70
2011,05,19,16,32,18.70
2011,05,19,16,33,18.60
2011,05,19,16,34,18.60
2011,05,19,16,35,18.60
2011,05,19,16,36,18.50
2011,05,19,16,37,18.50
2011,05,19,16,38,18.50
2011,05,19,16,39,18.50
2011,05,19,16,40,18.60
2011,05,19,16,41,18.60
2011,05,19,16,42,18.70
2011,05,19,16,43,18.70
2011,05,19,16,44,18.70
2011,05,19,16,45,18.70
2011,05,19,16,46,18.60
2011,05,19,16,47,18.50
2011,05,19,16,48,18.40
2011,05,19,16,49,18.30
2011,05,19,16,50,18.30
2011,05,19,16,51,18.30
2011,05,19,16,52,18.20
2011,05,19,16,53,18.20
2011,05,19,16,54,18.20
2011,05,19,16,55,18.20
2011,05,19,16,56,18.20
2011,05,19,16,57,18.20
2011,05,19,16,58,18.20
2011,05,19,16,59,18.20
2011,05,19,17,00,18.20
2011,05,19,17,01,18.20
2011,05,19,17,02,18.20
2011,05,19,17,03,18.20
2011,05,19,17,04,18.20
2011,05,19,17,05,18.20
2011,05,19,17,06,18.30
2011,05,19,17,07,18.30
2011,05,19,17,08,18.30
2011,05,19,17,09,18.40
2011,05,19,17,10,18.40
2011,05,19,17,11,18.40
2011,05,19,17,12,18.50
2011,05,19,17,13,18.50
2011,05,19,17,14,18.50
2011,05,19,17,15,18.50
2011,05,19,17,16,18.50
2011,05,19,17,17,18.50
2011,05,19,17,18,18.50
2011,05,19,17,19,18.50
2011,05,19,17,20,18.50
2011,05,19,17,21,18.50
2011,05,19,17,22,18.50
2011,05,19,17,23,18.50
2011,05,19,17,24,18.40
2011,05,19,17,25,18.40
2011,05,19,17,26,18.40
2011,05,19,17,27,18.30
2011,05,19,17,28,18.30
2011,05,19,17,29,18.30
2011,05,19,17,30,18.30
2011,05,19,17,31,18.40
2011,05,19,17,32,18.40
2011,05,19,17,33,18.40
2011,05,19,17,34,18.40
2011,05,19,17,35,18.40
2011,05,19,17,36,18.50
2011,05,19,17,37,18.50
2011,05,19,17,38,18.50
2011,05,19,17,39,18.60
2011,05,19,17,40,18.60
2011,05,19,17,41,18.60
2011,05,19,17,42,18.70
2011,05,19,17,43,18.70